Weather History for KCRG - May, 2012

Change the Weather History Date:

Thursday, May 3, 2012

  Actual Average (KJAX) Record (KJAX)
Temperature  
Mean Temperature 72 °F 71 °F  
Max Temperature 84 °F 83 °F 94 °F (2002)
Min Temperature 61 °F 59 °F 47 °F (1981)
Degree Days  
Heating Degree Days 0 1  
Month to date heating degree days 3  
Since 1 July heating degree days 1347  
Cooling Degree Days 6 6  
Month to date cooling degree days 18  
Year to date cooling degree days 214  
Growing Degree Days 22 (Base 50)    
Moisture  
Dew Point 64 °F    
Average Humidity 75    
Maximum Humidity 94    
Minimum Humidity 54    
Precipitation  
Precipitation 0.00 in 0.06 in 2.17 in (1880)
Month to date precipitation 0.18  
Year to date precipitation 13.26  
Snow  
Snow 0.00 in 0.00 in 0.00 in (2002)
Month to date snowfall 0.0  
Since 1 July snowfall T  
Snow Depth -    
Sea Level Pressure  
Sea Level Pressure 30.11 in    
Wind  
Wind Speed 5 mph (SE)    
Max Wind Speed 14 mph    
Max Gust Speed 20 mph    
Visibility 8 miles    
Events Fog    
T = Trace of Precipitation, MM = Missing Value Source: NWS Daily Summary

Daily Weather History Graph

Daily Weather History Graph

Search for Another Location

Airport or City:

Trip Planner

Search our weather history database for the weather conditions in past years. The results will help you decide how hot, cold, wet, or windy it might be!

Date:

Astronomy

May. 03, 2012 Rise Set
Actual Time 6:40 AM EDT 8:05 PM EDT
Civil Twilight 6:14 AM EDT 8:31 PM EDT
Nautical Twilight 5:44 AM EDT 9:01 PM EDT
Astronomical Twilight 5:12 AM EDT 9:33 PM EDT
Moon 5:36 PM EDT (5/3) 4:32 AM EDT (5/3)
Length of Visible Light 14h 16m
Length of Day
13h 25m
Waxing Gibbous, 91% of the Moon is Illuminated
May 3
Waxing Gibbous
May 5
Full
May 12
Last Quarter
May 20
New
May 28
First Quarter

Hourly Weather History & Observations

Time (EDT) Temp. Heat Index Dew Point Humidity Pressure Visibility Wind Dir Wind Speed Gust Speed Precip Events Conditions
12:53 AM 73.0 °F - 66.9 °F 81% 30.13 in 10.0 mi SSE 5.8 mph - N/A   Clear
1:53 AM 71.1 °F - 66.9 °F 87% 30.11 in 10.0 mi SSE 3.5 mph - N/A   Clear
2:53 AM 71.1 °F - 66.0 °F 84% 30.10 in 10.0 mi South 3.5 mph - N/A   Clear
3:53 AM 68.0 °F - 63.0 °F 84% 30.09 in 10.0 mi Calm Calm - N/A   Clear
4:53 AM 64.9 °F - 62.1 °F 90% 30.09 in 5.0 mi Calm Calm - N/A   Clear
5:09 AM 66.2 °F - 62.6 °F 88% 30.09 in 1.5 mi Calm Calm - N/A   Partly Cloudy
5:14 AM 64.4 °F - 62.6 °F 94% 30.09 in 0.8 mi Calm Calm - N/A   Mist
5:23 AM 64.4 °F - 62.6 °F 94% 30.09 in 0.5 mi Calm Calm - N/A Fog Fog
5:48 AM 62.6 °F - 60.8 °F 94% 30.10 in 1.0 mi Calm Calm - N/A   Mist
5:49 AM 62.6 °F - 60.8 °F 94% 30.10 in 1.2 mi Calm Calm - N/A   Scattered Clouds
5:53 AM 63.0 °F - 60.1 °F 90% 30.10 in 1.0 mi Calm Calm - N/A   Mist
6:05 AM 62.6 °F - 60.8 °F 94% 30.10 in 7.0 mi Calm Calm - N/A Fog Patches of Fog
6:53 AM 61.0 °F - 59.0 °F 93% 30.11 in 7.0 mi Calm Calm - N/A Fog Patches of Fog
7:53 AM 69.1 °F - 66.0 °F 90% 30.12 in 10.0 mi Calm Calm - N/A   Clear
8:53 AM 75.9 °F - 66.9 °F 74% 30.13 in 10.0 mi South 5.8 mph - N/A   Clear
9:53 AM 80.1 °F 81.9 °F 64.9 °F 60% 30.14 in 10.0 mi South 9.2 mph - N/A   Partly Cloudy
10:53 AM 82.0 °F 83.4 °F 64.0 °F 54% 30.15 in 10.0 mi ESE 6.9 mph - N/A   Mostly Cloudy
11:53 AM 81.0 °F 83.0 °F 66.0 °F 60% 30.14 in 10.0 mi ESE 5.8 mph - N/A   Mostly Cloudy
12:03 PM 82.4 °F 84.6 °F 66.2 °F 58% 30.15 in 10.0 mi SE 9.2 mph - N/A   Mostly Cloudy
12:24 PM 82.4 °F 84.6 °F 66.2 °F 58% 30.14 in 10.0 mi East 11.5 mph - N/A   Mostly Cloudy
12:53 PM 82.9 °F 84.6 °F 64.9 °F 54% 30.14 in 10.0 mi East 13.8 mph - N/A   Clear
1:53 PM 82.9 °F 84.6 °F 64.9 °F 54% 30.12 in 10.0 mi ESE 11.5 mph - N/A   Partly Cloudy
3:53 PM 82.0 °F 83.8 °F 64.9 °F 56% 30.10 in 10.0 mi ESE 11.5 mph 19.6 mph N/A   Clear
4:53 PM 82.0 °F 84.1 °F 66.0 °F 58% 30.10 in 10.0 mi ESE 12.7 mph - N/A   Clear
5:53 PM 81.0 °F 82.5 °F 64.0 °F 56% 30.09 in 10.0 mi ESE 13.8 mph - N/A   Clear
6:53 PM 79.0 °F - 62.1 °F 56% 30.09 in 10.0 mi SE 12.7 mph 19.6 mph N/A   Clear
7:53 PM 75.9 °F - 64.0 °F 67% 30.09 in 10.0 mi SE 6.9 mph - N/A   Clear
8:53 PM 75.9 °F - 64.0 °F 67% 30.10 in 10.0 mi SE 8.1 mph - N/A   Clear
9:53 PM 75.0 °F - 64.9 °F 71% 30.11 in 10.0 mi SSE 9.2 mph - N/A   Clear
10:53 PM 73.9 °F - 66.0 °F 76% 30.12 in 10.0 mi SSE 4.6 mph - N/A   Clear
11:53 PM 73.9 °F - 66.0 °F 76% 30.11 in 10.0 mi SSE 5.8 mph - N/A   Clear